W4HSV Weather Reports


Display with metric or nautical units.
time (UTC)temp
F
wind
direction
speed
MPH
gust
MPH
rain 1hr
in
rain 24hr
in
rain mn
in
humidity
%
barometer
mb
20190917064323 72 309 0.0 0.0 0.00 0.00 0.00 83 1016.6
20190917063824 73 309 0.0 1.0 0.00 0.00 0.00 82 1016.7
20190917063324 73 309 0.0 1.0 0.00 0.00 0.00 82 1016.7
20190917062824 73 309 0.0 0.0 0.00 0.00 0.00 81 1016.8
20190917062324 73 309 0.0 0.0 0.00 0.00 0.00 81 1016.8
20190917061827 73 309 0.0 0.0 0.00 0.00 0.00 82 1016.9
20190917061327 73 310 0.0 0.0 0.00 0.00 0.00 82 1016.8
20190917060828 73 309 0.0 0.0 0.00 0.00 0.00 81 1016.8
20190917060328 74 309 0.0 0.0 0.00 0.00 0.00 81 1016.8
20190917055833 74 309 0.0 0.0 0.00 0.00 0.00 81 1016.9
20190917055334 74 309 0.0 0.0 0.00 0.00 0.00 81 1016.8
20190917054836 74 309 0.0 0.0 0.00 0.00 0.00 80 1016.8
20190917054336 74 309 0.0 0.0 0.00 0.00 0.00 79 1016.8
20190917053835 74 309 0.0 0.0 0.00 0.00 0.00 79 1016.8
20190917053336 74 309 0.0 0.0 0.00 0.00 0.00 79 1016.8
20190917052837 75 309 0.0 0.0 0.00 0.00 0.00 78 1016.8
20190917052338 75 309 0.0 0.0 0.00 0.00 0.00 78 1016.8
20190917051841 75 309 0.0 0.0 0.00 0.00 0.00 77 1016.8
20190917051340 75 309 0.0 0.0 0.00 0.00 0.00 78 1016.8
20190917050841 75 309 0.0 0.0 0.00 0.00 0.00 78 1016.8
20190917050342 75 309 0.0 0.0 0.00 0.00 0.00 78 1016.9
20190917045826 75 309 0.0 0.0 0.00 0.00 0.00 78 1016.8
20190917045326 75 309 0.0 0.0 0.00 0.00 0.00 79 1016.8
20190917044828 75 309 0.0 0.0 0.00 0.00 0.00 79 1016.8
20190917044327 75 309 0.0 0.0 0.00 0.00 0.00 80 1016.8
20190917043829 75 309 0.0 0.0 0.00 0.00 0.00 81 1016.9
20190917043329 75 309 0.0 0.0 0.00 0.00 0.00 81 1016.9
20190917042831 75 309 0.0 0.0 0.00 0.00 0.00 80 1016.9
20190917042332 75 308 0.0 0.0 0.00 0.00 0.00 80 1016.9
20190917041834 75 308 0.0 5.0 0.00 0.00 0.00 80 1017.0
20190917041333 75 308 1.0 5.0 0.00 0.00 0.00 81 1016.9
20190917040833 75 347 0.0 0.0 0.00 0.00 0.00 80 1016.9
20190917040334 75 21 0.0 0.0 0.00 0.00 0.00 80 1016.9
20190917035835 75 21 0.0 0.0 0.00 0.00 0.00 79 1016.9
20190917035339 76 21 0.0 0.0 0.00 0.00 0.00 78 1016.8
20190917034842 76 21 0.0 0.0 0.00 0.00 0.00 77 1016.8
20190917034342 77 29 0.0 0.0 0.00 0.00 0.00 76 1016.8
20190917033843 77 39 0.0 0.0 0.00 0.00 0.00 76 1016.8
20190917033324 77 45 0.0 0.0 0.00 0.00 0.00 76 1016.8
20190917032825 77 48 0.0 0.0 0.00 0.00 0.00 77 1016.8
20190917032326 77 48 0.0 0.0 0.00 0.00 0.00 76 1016.8
20190917031828 77 48 0.0 0.0 0.00 0.00 0.00 76 1016.8
20190917031327 77 48 0.0 0.0 0.00 0.00 0.00 75 1016.8
20190917030827 78 48 0.0 0.0 0.00 0.00 0.00 75 1016.8
20190917030327 78 48 0.0 0.0 0.00 0.00 0.00 75 1016.7
20190917025827 78 48 0.0 0.0 0.00 0.00 0.00 75 1016.8
20190917025332 78 48 0.0 0.0 0.00 0.00 0.00 75 1016.8
20190917024835 78 48 0.0 0.0 0.00 0.00 0.00 74 1016.8
20190917024334 79 48 0.0 0.0 0.00 0.00 0.00 74 1016.8
20190917023834 79 48 0.0 0.0 0.00 0.00 0.00 73 1016.8
20190917023336 79 48 0.0 0.0 0.00 0.00 0.00 74 1016.8
20190917022837 79 48 0.0 0.0 0.00 0.00 0.00 73 1016.8
20190917022337 79 48 0.0 0.0 0.00 0.00 0.00 72 1016.8
20190917021840 79 48 0.0 0.0 0.00 0.00 0.00 71 1016.8
20190917021340 80 48 0.0 0.0 0.00 0.00 0.00 71 1016.8
20190917020840 80 48 0.0 0.0 0.00 0.00 0.00 70 1016.8
20190917020340 80 48 0.0 0.0 0.00 0.00 0.00 70 1016.7
20190917015839 80 48 0.0 0.0 0.00 0.00 0.00 70 1016.7
20190917015340 80 48 0.0 0.0 0.00 0.00 0.00 69 1016.7
20190917014825 80 48 0.0 0.0 0.00 0.00 0.00 69 1016.7
20190917014325 80 48 0.0 0.0 0.00 0.00 0.00 69 1016.6
20190917013825 81 48 0.0 0.0 0.00 0.00 0.00 68 1016.6
20190917013324 81 48 0.0 0.0 0.00 0.00 0.00 67 1016.6
20190917012825 82 48 0.0 0.0 0.00 0.00 0.00 66 1016.5
20190917012327 82 48 0.0 0.0 0.00 0.00 0.00 66 1016.5
20190917011829 82 48 0.0 0.0 0.00 0.00 0.00 65 1016.5
20190917011329 82 48 0.0 0.0 0.00 0.00 0.00 65 1016.5
20190917010830 82 48 0.0 0.0 0.00 0.00 0.00 64 1016.4
20190917010330 83 48 0.0 0.0 0.00 0.00 0.00 63 1016.4
20190917005831 83 48 0.0 0.0 0.00 0.00 0.00 62 1016.4
20190917005331 83 48 0.0 0.0 0.00 0.00 0.00 62 1016.4
20190917004837 83 48 0.0 0.0 0.00 0.00 0.00 61 1016.4
20190917004336 83 48 0.0 0.0 0.00 0.00 0.00 60 1016.4
20190917003837 84 48 0.0 0.0 0.00 0.00 0.00 57 1016.4
20190917003338 84 48 0.0 0.0 0.00 0.00 0.00 57 1016.4
20190917002839 84 48 0.0 2.0 0.00 0.00 0.00 57 1016.3
20190917002340 85 48 0.0 2.0 0.00 0.00 0.00 55 1016.3
20190917001843 86 48 1.0 2.0 0.00 0.00 0.00 54 1016.2
20190917001342 87 48 0.0 2.0 0.00 0.00 0.00 53 1016.2
20190917000843 87 48 0.0 0.0 0.00 0.00 0.00 52 1016.3
20190917000324 88 48 0.0 0.0 0.00 0.00 0.00 50 1016.3
20190916235824 89 48 0.0 0.0 0.00 0.00 0.00 49 1016.2
20190916235325 89 48 0.0 0.0 0.00 0.00 0.00 48 1016.2
20190916234832 90 48 0.0 0.0 0.00 0.00 0.00 46 1016.2
20190916234331 91 48 0.0 0.0 0.00 0.00 0.00 45 1016.2
20190916233832 91 48 0.0 0.0 0.00 0.00 0.00 44 1016.2
20190916233333 92 48 0.0 2.0 0.00 0.00 0.00 43 1016.2
20190916232834 92 48 0.0 3.0 0.00 0.00 0.00 42 1016.3
20190916232334 93 48 1.0 4.0 0.00 0.00 0.00 41 1016.3
20190916231836 93 48 1.0 5.0 0.00 0.00 0.00 40 1016.3
20190916231337 93 48 2.0 5.0 0.00 0.00 0.00 39 1016.3
20190916230838 94 48 2.0 5.0 0.00 0.00 0.00 38 1016.3
20190916230339 94 48 2.0 6.0 0.00 0.00 0.00 38 1016.3
20190916225859 94 33 3.0 6.0 0.00 0.00 0.00 37 1016.4
20190916225338 95 21 3.0 6.0 0.00 0.00 0.00 36 1016.4
20190916224841 95 16 4.0 5.0 0.00 0.00 0.00 34 1016.4
20190916224324 95 16 1.0 5.0 0.00 0.00 0.00 35 1016.4
20190916223825 95 26 1.0 8.0 0.00 0.00 0.00 34 1016.4
20190916223326 95 27 4.0 8.0 0.00 0.00 0.00 34 1016.5
20190916222828 95 13 4.0 6.0 0.00 0.00 0.00 34 1016.5
20190916222327 96 18 3.0 6.0 0.00 0.00 0.00 35 1016.4
20190916221830 96 37 2.0 6.0 0.00 0.00 0.00 34 1016.4
20190916221329 96 31 3.0 10.0 0.00 0.00 0.00 35 1016.5
20190916220830 96 34 5.0 10.0 0.00 0.00 0.00 34 1016.5
20190916220330 96 14 3.0 8.0 0.00 0.00 0.00 32 1016.5
20190916215831 97 27 3.0 8.0 0.00 0.00 0.00 32 1016.4
20190916215331 97 79 0.0 8.0 0.00 0.00 0.00 33 1016.4
20190916214832 97 79 5.0 9.0 0.00 0.00 0.00 34 1016.5
20190916214332 96 105 5.0 11.0 0.00 0.00 0.00 33 1016.4
20190916213836 96 31 5.0 11.0 0.00 0.00 0.00 34 1016.5
20190916213338 96 70 4.0 13.0 0.00 0.00 0.00 34 1016.5
20190916212839 96 62 8.0 13.0 0.00 0.00 0.00 34 1016.5
20190916212339 96 342 2.0 9.0 0.00 0.00 0.00 35 1016.5
20190916211842 96 354 4.0 9.0 0.00 0.00 0.00 35 1016.5
20190916211342 96 17 2.0 5.0 0.00 0.00 0.00 35 1016.6
20190916210843 95 20 2.0 4.0 0.00 0.00 0.00 35 1016.6
20190916210324 96 21 2.0 8.0 0.00 0.00 0.00 35 1016.6
20190916205825 97 25 4.0 10.0 0.00 0.00 0.00 33 1016.7
20190916205325 98 70 4.0 11.0 0.00 0.00 0.00 34 1016.6
20190916204826 98 88 3.0 12.0 0.00 0.00 0.00 35 1016.7
20190916204325 98 75 7.0 12.0 0.00 0.00 0.00 34 1016.7
20190916203829 97 83 7.0 10.0 0.00 0.00 0.00 37 1016.8
20190916203330 96 328 2.0 6.0 0.00 0.00 0.00 34 1016.9
20190916202831 95 331 3.0 6.0 0.00 0.00 0.00 35 1016.8
20190916202331 95 341 2.0 8.0 0.00 0.00 0.00 37 1016.9
20190916201832 96 354 4.0 8.0 0.00 0.00 0.00 35 1017.0
20190916201331 96 340 4.0 8.0 0.00 0.00 0.00 36 1017.0
20190916200840 97 38 4.0 10.0 0.00 0.00 0.00 36 1017.1
20190916195823 97 25 5.0 11.0 0.00 0.00 0.00 35 1017.2
20190916195331 98 18 3.0 8.0 0.00 0.00 0.00 35 1017.2
20190916194837 98 41 3.0 11.0 0.00 0.00 0.00 35 1017.4
20190916194340 98 41 7.0 11.0 0.00 0.00 0.00 34 1017.4
20190916193824 97 4 5.0 11.0 0.00 0.00 0.00 35 1017.5
20190916193328 95 58 4.0 12.0 0.00 0.00 0.00 38 1017.5
20190916192832 95 14 2.0 10.0 0.00 0.00 0.00 38 1017.6
20190916192336 95 293 3.0 10.0 0.00 0.00 0.00 38 1017.6
20190916191841 96 324 5.0 13.0 0.00 0.00 0.00 37 1017.8
20190916191323 96 359 4.0 14.0 0.00 0.00 0.00 38 1017.9
20190916190827 96 346 8.0 14.0 0.00 0.00 0.00 37 1017.9
20190916190331 95 310 2.0 11.0 0.00 0.00 0.00 38 1017.9
20190916185839 96 4 4.0 11.0 0.00 0.00 0.00 37 1018.0
20190916185322 97 8 6.0 9.0 0.00 0.00 0.00 36 1018.2
20190916184828 98 34 2.0 11.0 0.00 0.00 0.00 35 1018.2
20190916184331 98 68 7.0 11.0 0.00 0.00 0.00 36 1018.3
20190916183835 98 38 3.0 9.0 0.00 0.00 0.00 35 1018.4
20190916183339 98 66 4.0 14.0 0.00 0.00 0.00 37 1018.5
20190916182825 98 88 6.0 14.0 0.00 0.00 0.00 35 1018.4
20190916182327 98 75 2.0 6.0 0.00 0.00 0.00 36 1018.5
20190916181833 97 12 2.0 15.0 0.00 0.00 0.00 35 1018.6
20190916181336 97 56 7.0 15.0 0.00 0.00 0.00 34 1018.8
20190916180823 97 354 3.0 8.0 0.00 0.00 0.00 35 1018.8
20190916180327 98 70 3.0 10.0 0.00 0.00 0.00 36 1018.8
20190916175831 97 82 7.0 13.0 0.00 0.00 0.00 37 1018.9
20190916175334 97 77 9.0 13.0 0.00 0.00 0.00 38 1019.0
20190916174840 96 69 2.0 10.0 0.00 0.00 0.00 38 1019.1
20190916174322 96 60 5.0 10.0 0.00 0.00 0.00 38 1019.1
20190916173827 95 37 1.0 10.0 0.00 0.00 0.00 38 1019.2
20190916173331 95 354 5.0 12.0 0.00 0.00 0.00 37 1019.3
20190916172834 96 39 4.0 12.0 0.00 0.00 0.00 38 1019.4
20190916172338 95 43 3.0 13.0 0.00 0.00 0.00 38 1019.4
20190916171824 95 73 7.0 13.0 0.00 0.00 0.00 39 1019.5
20190916171330 95 336 5.0 13.0 0.00 0.00 0.00 38 1019.5
20190916170834 95 68 5.0 13.0 0.00 0.00 0.00 40 1019.6
20190916170338 94 31 7.0 13.0 0.00 0.00 0.00 41 1019.7
20190916165821 93 16 2.0 9.0 0.00 0.00 0.00 42 1019.7
20190916165325 93 34 4.0 9.0 0.00 0.00 0.00 42 1019.7
20190916164831 93 33 1.0 10.0 0.00 0.00 0.00 43 1019.7
20190916164334 93 4 3.0 10.0 0.00 0.00 0.00 43 1019.8
20190916163838 93 349 5.0 9.0 0.00 0.00 0.00 41 1019.8
20190916163321 93 322 0.0 4.0 0.00 0.00 0.00 44 1019.9
20190916162826 92 319 0.0 4.0 0.00 0.00 0.00 46 1020.0
20190916162330 92 12 1.0 5.0 0.00 0.00 0.00 46 1020.0
20190916161839 93 13 3.0 5.0 0.00 0.00 0.00 46 1020.1
20190916161322 93 17 2.0 4.0 0.00 0.00 0.00 45 1020.1
20190916160826 93 22 0.0 6.0 0.00 0.00 0.00 44 1020.1
20190916160330 93 23 2.0 6.0 0.00 0.00 0.00 44 1020.2
20190916155834 94 20 0.0 0.0 0.00 0.00 0.00 44 1020.3
20190916155338 93 21 0.0 0.0 0.00 0.00 0.00 46 1020.3
20190916154823 92 21 0.0 0.0 0.00 0.00 0.00 46 1020.3
20190916154326 92 21 0.0 0.0 0.00 0.00 0.00 48 1020.4
20190916153830 91 21 0.0 0.0 0.00 0.00 0.00 51 1020.4
20190916153334 90 21 0.0 0.0 0.00 0.00 0.00 51 1020.5
20190916152822 90 21 0.0 0.0 0.00 0.00 0.00 52 1020.5
20190916152326 89 21 0.0 0.0 0.00 0.00 0.00 50 1020.5
20190916151832 89 21 0.0 0.0 0.00 0.00 0.00 52 1020.6
20190916151334 89 21 0.0 0.0 0.00 0.00 0.00 53 1020.6
20190916150838 88 21 0.0 0.0 0.00 0.00 0.00 54 1020.7
20190916150321 88 22 0.0 0.0 0.00 0.00 0.00 55 1020.7
20190916145825 87 22 0.0 0.0 0.00 0.00 0.00 55 1020.7
20190916145329 87 22 0.0 0.0 0.00 0.00 0.00 56 1020.7
20190916144834 87 21 0.0 0.0 0.00 0.00 0.00 56 1020.8
20190916144337 86 22 0.0 0.0 0.00 0.00 0.00 56 1020.8
20190916143821 86 21 0.0 0.0 0.00 0.00 0.00 57 1020.8
20190916143328 85 22 0.0 0.0 0.00 0.00 0.00 58 1020.8
20190916142833 84 22 0.0 0.0 0.00 0.00 0.00 62 1020.8
20190916142336 84 22 0.0 0.0 0.00 0.00 0.00 62 1020.8
20190916141821 83 22 0.0 0.0 0.00 0.00 0.00 68 1020.7
20190916141324 82 22 0.0 0.0 0.00 0.00 0.00 69 1020.8
20190916140828 81 21 0.0 0.0 0.00 0.00 0.00 71 1020.8
20190916140332 80 21 0.0 0.0 0.00 0.00 0.00 70 1020.8
20190916135836 80 21 0.0 0.0 0.00 0.00 0.00 72 1020.8
20190916135340 79 21 0.0 0.0 0.00 0.00 0.00 73 1020.8
20190916134825 78 22 0.0 0.0 0.00 0.00 0.00 75 1020.8
20190916134328 78 21 0.0 0.0 0.00 0.00 0.00 76 1020.8
20190916133836 77 21 0.0 0.0 0.00 0.00 0.00 79 1020.8
20190916133340 76 21 0.0 0.0 0.00 0.00 0.00 81 1020.7
20190916132824 76 21 0.0 0.0 0.00 0.00 0.00 83 1020.7
20190916132327 75 21 0.0 0.0 0.00 0.00 0.00 83 1020.6
20190916131833 75 21 0.0 0.0 0.00 0.00 0.00 83 1020.6
20190916131336 74 21 0.0 0.0 0.00 0.00 0.00 85 1020.5
20190916130820 73 22 0.0 1.0 0.00 0.00 0.00 86 1020.4
20190916130324 72 21 0.0 1.0 0.00 0.00 0.00 87 1020.4
20190916125828 72 21 0.0 0.0 0.00 0.00 0.00 89 1020.4
20190916125332 71 21 0.0 0.0 0.00 0.00 0.00 89 1020.3
20190916124837 71 21 0.0 0.0 0.00 0.00 0.00 89 1020.4
20190916124323 71 21 0.0 0.0 0.00 0.00 0.00 90 1020.4
20190916123827 70 22 0.0 0.0 0.00 0.00 0.00 91 1020.3
20190916123331 70 21 0.0 0.0 0.00 0.00 0.00 92 1020.4
20190916122835 69 21 0.0 1.0 0.00 0.00 0.00 93 1020.4
20190916122339 69 21 0.0 1.0 0.00 0.00 0.00 93 1020.3
20190916121825 69 23 0.0 1.0 0.00 0.00 0.00 93 1020.2
20190916121327 69 23 0.0 1.0 0.00 0.00 0.00 93 1020.1
20190916120832 68 23 0.0 1.0 0.00 0.00 0.00 92 1020.1
20190916120336 68 23 0.0 1.0 0.00 0.00 0.00 92 1020.1
20190916115832 68 23 0.0 0.0 0.00 0.00 0.00 92 1020.0
20190916115333 68 23 0.0 0.0 0.00 0.00 0.00 92 1020.0
20190916114835 68 23 0.0 0.0 0.00 0.00 0.00 92 1019.9
20190916114335 68 23 0.0 0.0 0.00 0.00 0.00 92 1019.8
20190916113836 68 23 0.0 0.0 0.00 0.00 0.00 92 1019.8
20190916113336 68 23 0.0 0.0 0.00 0.00 0.00 92 1019.8
20190916112838 68 23 0.0 0.0 0.00 0.00 0.00 92 1019.7
20190916112339 68 23 0.0 0.0 0.00 0.00 0.00 92 1019.6
20190916111842 68 23 0.0 0.0 0.00 0.00 0.00 92 1019.6
20190916111343 68 23 0.0 0.0 0.00 0.00 0.00 92 1019.6
20190916110824 68 23 0.0 0.0 0.00 0.00 0.00 92 1019.7
20190916110324 68 23 0.0 0.0 0.00 0.00 0.00 92 1019.5
20190916105828 68 23 0.0 0.0 0.00 0.00 0.00 92 1019.5
20190916105330 68 23 0.0 0.0 0.00 0.00 0.00 92 1019.4
20190916104833 68 23 0.0 0.0 0.00 0.00 0.00 91 1019.4
20190916104332 69 23 0.0 0.0 0.00 0.00 0.00 92 1019.4
20190916103833 69 23 0.0 0.0 0.00 0.00 0.00 92 1019.3
20190916103333 69 23 0.0 0.0 0.00 0.00 0.00 92 1019.3
20190916102834 69 23 0.0 0.0 0.00 0.00 0.00 92 1019.3
20190916102335 69 23 0.0 0.0 0.00 0.00 0.00 92 1019.3
20190916101838 69 23 0.0 0.0 0.00 0.00 0.00 91 1019.2
20190916101338 69 23 0.0 0.0 0.00 0.00 0.00 91 1019.2
20190916100839 69 23 0.0 0.0 0.00 0.00 0.00 91 1019.1
20190916100339 69 23 0.0 0.0 0.00 0.00 0.00 91 1019.1
20190916095825 69 23 0.0 0.0 0.00 0.00 0.00 91 1019.1
20190916095326 69 23 0.0 0.0 0.00 0.00 0.00 91 1019.1
20190916094829 69 23 0.0 0.0 0.00 0.00 0.00 91 1019.0
20190916094328 69 23 0.0 0.0 0.00 0.00 0.00 91 1019.0
20190916093829 69 23 0.0 0.0 0.00 0.00 0.00 91 1019.0
20190916093331 69 23 0.0 0.0 0.00 0.00 0.00 91 1018.9
20190916092832 69 23 0.0 0.0 0.00 0.00 0.00 90 1019.0
20190916092332 69 23 0.0 0.0 0.00 0.00 0.00 90 1018.9
20190916091834 69 23 0.0 0.0 0.00 0.00 0.00 90 1018.9
20190916091334 70 23 0.0 0.0 0.00 0.00 0.00 90 1018.9
20190916090834 70 23 0.0 0.0 0.00 0.00 0.00 90 1019.0
20190916090326 70 23 0.0 0.0 0.00 0.00 0.00 90 1018.9
20190916085827 69 23 0.0 1.0 0.00 0.00 0.00 90 1018.9
20190916085331 69 23 0.0 1.0 0.00 0.00 0.00 90 1018.9
20190916084835 69 23 0.0 1.0 0.00 0.00 0.00 90 1018.9
20190916084335 69 23 0.0 1.0 0.00 0.00 0.00 90 1018.9
20190916083837 69 23 0.0 1.0 0.00 0.00 0.00 90 1018.8
20190916083338 69 23 0.0 1.0 0.00 0.00 0.00 89 1018.8
20190916082839 69 24 0.0 1.0 0.00 0.00 0.00 89 1018.7
20190916082340 70 24 0.0 1.0 0.00 0.00 0.00 88 1018.7
20190916081843 70 25 0.0 0.0 0.00 0.00 0.00 88 1018.7
20190916081343 70 25 0.0 0.0 0.00 0.00 0.00 88 1018.6
20190916080824 70 25 0.0 0.0 0.00 0.00 0.00 87 1018.6
20190916080324 70 25 0.0 0.0 0.00 0.00 0.00 87 1018.5
20190916075824 70 25 0.0 0.0 0.00 0.00 0.00 87 1018.5
20190916075329 71 25 0.0 0.0 0.00 0.00 0.00 87 1018.6
20190916074832 71 25 0.0 0.0 0.00 0.00 0.00 86 1018.6
20190916074331 71 25 0.0 0.0 0.00 0.00 0.00 86 1018.7
20190916073833 71 25 0.0 0.0 0.00 0.00 0.00 85 1018.7
20190916073333 71 25 0.0 0.0 0.00 0.00 0.00 85 1018.7
20190916072833 72 25 0.0 0.0 0.00 0.00 0.00 85 1018.7
20190916072334 72 25 0.0 0.0 0.00 0.00 0.00 84 1018.6
20190916071837 72 25 0.0 0.0 0.00 0.00 0.00 84 1018.7
20190916071336 72 25 0.0 0.0 0.00 0.00 0.00 84 1018.7
20190916070837 72 25 0.0 0.0 0.00 0.00 0.00 83 1018.7
20190916070337 72 25 0.0 0.0 0.00 0.00 0.00 83 1018.7
20190916065839 72 25 0.0 0.0 0.00 0.00 0.00 83 1018.7
20190916065323 72 25 0.0 0.0 0.00 0.00 0.00 83 1018.8
20190916064825 72 25 0.0 0.0 0.00 0.00 0.00 83 1018.8